Freeport, IL

8:37 AM CST on December 12, 2019 (GMT -0600)
Albertus

Weather History for KFEP - October, 2019

Change the Weather History Date:

Monday, October 7, 2019

  Actual Average Record
Temperature  
Mean Temperature 54 °F -  
Max Temperature 66 °F 64 °F 85 °F (1982)
Min Temperature 43 °F 39 °F 26 °F (2001)
Degree Days  
Heating Degree Days 10    
Growing Degree Days 4 (Base 50)    
Moisture  
Dew Point 43 °F    
Average Humidity 74    
Maximum Humidity 100    
Minimum Humidity 36    
Precipitation  
Precipitation 0.00 in - - ()
Sea Level Pressure  
Sea Level Pressure 30.19 in    
Wind  
Wind Speed 7 mph (West)    
Max Wind Speed 13 mph    
Max Gust Speed 20 mph    
Visibility 10 miles    
Events      
Averages and records for this station are not official NWS values.
T = Trace of Precipitation, MM = Missing Value Source: NWS Daily Summary

Daily Weather History Graph

Daily Weather History Graph

Search for Another Location

Airport or City:

Astronomy

Oct. 07, 2019 Rise Set
Actual Time 7:01 AM CDT 6:29 PM CDT
Civil Twilight 6:33 AM CDT 6:57 PM CDT
Nautical Twilight 6:01 AM CDT 7:30 PM CDT
Astronomical Twilight 5:28 AM CDT 8:02 PM CDT
Moon 3:59 PM CDT (10/7) 12:46 AM CDT (10/7)
Length of Visible Light 12h 24m
Length of Day
11h 28m
Waxing Gibbous, 69% of the Moon is Illuminated
Oct 7
Waxing Gibbous
Oct 13
Full
Oct 21
Last Quarter
Oct 27
New
Nov 4
First Quarter

Hourly Weather History & Observations

Time (CDT) Temp. Windchill Dew Point Humidity Pressure Visibility Wind Dir Wind Speed Gust Speed Precip Events Conditions
12:15 AM 48.0 °F - 46.6 °F 95% 30.15 in 10.0 mi WSW 6.9 mph - N/A   Clear
12:35 AM 47.7 °F - 46.4 °F 95% 30.16 in 10.0 mi WSW 5.8 mph - N/A   Clear
12:55 AM 46.6 °F - 45.9 °F 97% 30.16 in 10.0 mi WSW 6.9 mph - N/A   Clear
1:15 AM 46.4 °F 42.9 °F 45.9 °F 98% 30.16 in 10.0 mi WSW 6.9 mph - N/A   Clear
1:35 AM 46.4 °F 42.9 °F 45.5 °F 97% 30.16 in 10.0 mi WSW 6.9 mph - N/A   Clear
1:55 AM 46.2 °F 43.3 °F 45.0 °F 95% 30.16 in 10.0 mi WSW 5.8 mph - N/A   Clear
2:15 AM 44.8 °F 41.0 °F 44.6 °F 99% 30.16 in 10.0 mi WSW 6.9 mph - N/A   Clear
2:35 AM 45.0 °F 41.8 °F 44.6 °F 99% 30.17 in 10.0 mi WSW 5.8 mph - N/A   Clear
2:55 AM 44.4 °F 39.5 °F 44.1 °F 99% 30.17 in 10.0 mi SW 9.2 mph - N/A   Clear
3:15 AM 45.1 °F 39.9 °F 44.2 °F 97% 30.17 in 10.0 mi SW 10.4 mph - N/A   Clear
3:35 AM 44.6 °F 40.7 °F 43.9 °F 97% 30.16 in 10.0 mi WSW 6.9 mph - N/A   Clear
3:55 AM 44.2 °F 39.7 °F 43.7 °F 98% 30.17 in 10.0 mi SW 8.1 mph - N/A   Clear
4:15 AM 45.5 °F 41.3 °F 43.7 °F 93% 30.17 in 10.0 mi WSW 8.1 mph - N/A   Clear
4:35 AM 44.2 °F 40.3 °F 43.3 °F 97% 30.18 in 10.0 mi SW 6.9 mph - N/A   Clear
4:55 AM 44.4 °F 40.0 °F 43.2 °F 95% 30.17 in 10.0 mi SW 8.1 mph - N/A   Clear
5:15 AM 44.4 °F 40.0 °F 43.2 °F 95% 30.18 in 10.0 mi WSW 8.1 mph - N/A   Clear
5:35 AM 44.2 °F 39.7 °F 43.0 °F 95% 30.18 in 10.0 mi SW 8.1 mph - N/A   Clear
5:55 AM 44.6 °F 39.7 °F 43.0 °F 94% 30.18 in 10.0 mi WSW 9.2 mph - N/A   Clear
6:15 AM 44.6 °F 40.2 °F 42.8 °F 93% 30.18 in 10.0 mi WSW 8.1 mph - N/A   Clear
6:35 AM 44.4 °F 40.0 °F 42.8 °F 94% 30.18 in 10.0 mi WSW 8.1 mph - N/A   Clear
6:55 AM 44.6 °F 40.2 °F 42.3 °F 91% 30.18 in 10.0 mi WSW 8.1 mph - N/A   Clear
7:15 AM 43.9 °F 38.8 °F 42.6 °F 95% 30.18 in 10.0 mi WSW 9.2 mph - N/A   Clear
7:35 AM 44.8 °F 41.0 °F 42.4 °F 91% 30.19 in 10.0 mi WSW 6.9 mph - N/A   Clear
7:55 AM 45.7 °F 41.5 °F 42.8 °F 90% 30.19 in 10.0 mi WSW 8.1 mph - N/A   Clear
8:15 AM 47.3 °F - 43.2 °F 86% 30.20 in 10.0 mi WSW 8.1 mph - N/A   Clear
8:35 AM 49.1 °F - 43.7 °F 82% 30.20 in 10.0 mi West 8.1 mph - N/A   Clear
8:55 AM 50.5 °F - 43.7 °F 77% 30.20 in 10.0 mi West 8.1 mph - N/A   Clear
9:15 AM 52.0 °F - 43.7 °F 73% 30.21 in 10.0 mi West 9.2 mph - N/A   Clear
9:35 AM 53.1 °F - 44.1 °F 71% 30.21 in 10.0 mi West 9.2 mph - N/A   Clear
9:55 AM 54.7 °F - 44.2 °F 68% 30.21 in 10.0 mi WNW 8.1 mph - N/A   Clear
10:15 AM 56.5 °F - 44.2 °F 64% 30.21 in 10.0 mi WNW 6.9 mph - N/A   Clear
10:35 AM 57.9 °F - 44.1 °F 60% 30.21 in 10.0 mi West 6.9 mph - N/A   Clear
10:55 AM 60.3 °F - 45.3 °F 58% 30.22 in 10.0 mi WNW 5.8 mph - N/A   Clear
11:15 AM 61.5 °F - 45.0 °F 55% 30.21 in 10.0 mi WNW 8.1 mph - N/A   Clear
11:35 AM 61.7 °F - 43.9 °F 52% 30.21 in 10.0 mi West 5.8 mph - N/A   Clear
11:55 AM 63.5 °F - 43.9 °F 49% 30.21 in 10.0 mi WNW 10.4 mph - N/A   Clear
12:15 PM 64.4 °F - 42.6 °F 45% 30.21 in 10.0 mi WNW 10.4 mph - N/A   Clear
12:35 PM 64.6 °F - 40.5 °F 41% 30.21 in 10.0 mi NW 11.5 mph - N/A   Clear
12:55 PM 65.3 °F - 40.6 °F 40% 30.21 in 10.0 mi NW 12.7 mph 19.6 mph N/A   Clear
1:15 PM 65.5 °F - 40.5 °F 40% 30.20 in 10.0 mi NW 12.7 mph 19.6 mph N/A   Clear
1:35 PM 65.3 °F - 39.2 °F 38% 30.20 in 10.0 mi WNW 12.7 mph - N/A   Clear
1:55 PM 65.3 °F - 39.6 °F 39% 30.19 in 10.0 mi NW 11.5 mph - N/A   Clear
2:15 PM 66.2 °F - 40.1 °F 38% 30.19 in 10.0 mi NW 10.4 mph 16.1 mph N/A   Clear
2:35 PM 66.0 °F - 40.5 °F 39% 30.19 in 10.0 mi WNW 9.2 mph 19.6 mph N/A   Clear
2:55 PM 65.7 °F - 40.1 °F 39% 30.19 in 10.0 mi WNW 10.4 mph 16.1 mph N/A   Clear
3:15 PM 65.3 °F - 39.2 °F 38% 30.19 in 10.0 mi NW 10.4 mph 16.1 mph N/A   Clear
3:35 PM 65.3 °F - 38.7 °F 38% 30.19 in 10.0 mi WNW 11.5 mph 18.4 mph N/A   Clear
3:55 PM 65.3 °F - 37.4 °F 36% 30.19 in 10.0 mi WNW 9.2 mph - N/A   Clear
4:15 PM 64.8 °F - 37.4 °F 36% 30.19 in 10.0 mi West 10.4 mph 17.3 mph N/A   Clear
4:35 PM 64.4 °F - 36.9 °F 36% 30.19 in 10.0 mi West 8.1 mph - N/A   Clear
4:55 PM 63.9 °F - 37.2 °F 37% 30.19 in 10.0 mi West 9.2 mph - N/A   Clear
5:15 PM 63.0 °F - 37.9 °F 40% 30.19 in 10.0 mi WNW 6.9 mph - N/A   Clear
5:35 PM 62.6 °F - 38.3 °F 41% 30.19 in 10.0 mi WNW 4.6 mph - N/A   Clear
5:55 PM 60.6 °F - 39.4 °F 45% 30.19 in 10.0 mi NW 3.5 mph - N/A   Clear
6:15 PM 59.0 °F - 39.6 °F 49% 30.19 in 10.0 mi Calm Calm - N/A   Clear
6:35 PM 58.5 °F - 40.5 °F 51% 30.19 in 10.0 mi Calm Calm - N/A   Clear
7:15 PM 50.4 °F - 43.7 °F 78% 30.20 in 10.0 mi Calm Calm - N/A   Clear
7:35 PM 48.4 °F - 44.2 °F 86% 30.20 in 10.0 mi Calm Calm - N/A   Clear
7:55 PM 48.2 °F - 43.7 °F 84% 30.20 in 10.0 mi Calm Calm - N/A   Clear
8:15 PM 46.9 °F - 43.7 °F 88% 30.21 in 10.0 mi SW 3.5 mph - N/A   Clear
8:35 PM 45.9 °F 44.6 °F 44.4 °F 95% 30.21 in 10.0 mi SW 3.5 mph - N/A   Clear
8:55 PM 45.1 °F 43.7 °F 44.2 °F 97% 30.21 in 10.0 mi SW 3.5 mph - N/A   Clear
9:15 PM 45.5 °F - 44.1 °F 95% 30.21 in 10.0 mi Calm Calm - N/A   Clear
9:35 PM 45.7 °F 44.4 °F 43.2 °F 91% 30.21 in 10.0 mi South 3.5 mph - N/A   Clear
9:55 PM 43.9 °F - 43.5 °F 99% 30.22 in 10.0 mi Calm Calm - N/A   Clear
10:15 PM 43.3 °F - 43.3 °F 100% 30.22 in 10.0 mi Calm Calm - N/A   Clear
10:35 PM 44.1 °F - 43.5 °F 98% 30.22 in 10.0 mi Calm Calm - N/A   Clear
10:55 PM 43.9 °F - 42.8 °F 96% 30.22 in 10.0 mi Calm Calm - N/A   Clear
11:15 PM 44.2 °F - 42.8 °F 95% 30.22 in 10.0 mi Calm Calm - N/A   Clear
11:35 PM 43.9 °F - 42.8 °F 96% 30.22 in 10.0 mi Calm Calm - N/A   Clear
11:55 PM 43.3 °F 41.7 °F 42.3 °F 96% 30.22 in 10.0 mi South 3.5 mph - N/A   Clear